Location: Montclair
(37.8322°N, 122.2092°W)
Time: 14:56:54
(UTC+00:00)

Okean 1-7 Rocket - Pass Details

Date: 08 September 2024
Orbit: 612 x 646 km, 82.5° (Epoch: 08 October)

Event Time Altitude Azimuth Distance (km) Brightness Sun altitude
Rises 12:20:38 0° 353° (N) 2,942 7.2 -17.0°
Reaches altitude 10° 12:22:54 10° 354° (N) 2,023 6.4 -16.6°
Maximum altitude 12:27:23 85° 82° (E) 636 3.6 -15.8°
Drops below altitude 10° 12:31:48 10° 172° (S) 1,985 6.0 -14.9°
Sets 12:34:00 0° 173° (S) 2,882 6.9 -14.5°
